Location: Newark
(42.8481°N, 0.4872°E)
Time: 23:02:52
(UTC+00:00)

Transit 2A - Pass Details

Date: 31 October 2020
Orbit: 595 x 963 km, 66.7° (Epoch: 03 December)

Event Time Altitude Azimuth Distance (km) Brightness Sun altitude
Rises 10:20:32 0° 317° (NW) 3,370 8.8 29.9°
Reaches altitude 10° 10:23:35 10° 303° (WNW) 2,361 8.2 30.1°
Maximum altitude 10:27:34 21° 255° (WSW) 1,616 7.8 30.3°
Drops below altitude 10° 10:31:16 10° 206° (SSW) 2,166 9.1 30.6°
Sets 10:33:57 0° 190° (S) 3,016 9.9 30.7°
